Location: Sebastopol
(38.4021°N, 122.8239°W)
Time: 15:10:15
(UTC+00:00)

CZ-4B R/B - Pass Details

Date: 29 October 2020
Orbit: 388 x 461 km, 97.6° (Epoch: 01 December)

Event Time Altitude Azimuth Distance (km) Brightness Sun altitude
Rises 13:36:07 0° 193° (SSW) 2,480 5.1 -12.1°
Reaches altitude 10° 13:38:25 10° 207° (SSW) 1,609 4.0 -11.7°
Maximum altitude 13:41:17 24° 263° (W) 994 2.6 -11.1°
Drops below altitude 10° 13:44:10 10° 320° (NW) 1,607 3.7 -10.6°
Enters shadow 13:44:51 - 325° (NW) 1,854 4.1 -10.4°
